YAOGAN-43 02E

Last updated on Fri Oct 04 2024 00:02:03 GMT+0000 (Coordinated Universal Time)

1 60949U 24156E 24277.37397756 .00048773 00000+0 19922-2 0 9998 2 60949 34.9954 148.9359 0009362 191.4989 168.5513 15.23307383 4585
UTC large
Height (km)
Speed (km/s)
/
Latitude / Longitude
Inclination (degrees)
Orbital Period (minutes)
Azimuth
Elevation
Range (km)
Doppler Factor

Next 0 passes for location: London (51.5072 / 0.1276)

Sorry there are no passes over London.